{"data":{"norad_id":41914,"epoch":"2026-05-25T04:08:37.633056Z","epoch_age_seconds":50289,"freshness":"FRESH","line1":"1 41914U 17002B   26145.17265779  .00012508  00000+0  30572-3 0  9996","line2":"2 41914  97.1956 152.5922 0003823 243.9666 116.1188 15.40943674518313","mean_motion":15.40943674,"eccentricity":0.0003823,"inclination_deg":97.1956,"raan_deg":152.5922,"arg_perigee_deg":243.9666,"mean_anomaly_deg":116.1188,"bstar":0.00030572,"rev_number":51831,"period_min":93.449230124164,"perigee_km":440.71507683088,"apogee_km":445.93076508645,"semimajor_km":6821.4599209587,"source":"CELESTRAK","updated_at":"2026-05-25T13:37:55.658712Z"}}